KLM12A EHAM-LFPG

Flight info

Callsign KLM12A
Flight time 0h 53m
Altitude 29000
Route WOODY N872 DENOX DCT SISGA DCT DELOM DCT MOPIL
Aircraft B738/M-SDE2E3FGHIRWXY/LB1

Departure

Time 2026-05-08 19:35
Airport Amsterdam Airport Schiphol (EHAM)

Arrival

Time 2026-05-08 20:29
Airport Charles de Gaulle International Airport (LFPG)
Time Latitude Longitude Altitude Speed Heading
2026-05-08 19:07 52.30570 4.76483 0 ft 0 kts 57°
2026-05-08 19:21 52.30570 4.76482 -1 ft 1 kts 57°
2026-05-08 19:21 52.30561 4.76460 -1 ft 2 kts 56°
2026-05-08 19:22 52.30551 4.76437 -1 ft 2 kts 61°
2026-05-08 19:22 52.30546 4.76408 -1 ft 2 kts 86°
2026-05-08 19:22 52.30548 4.76380 -1 ft 1 kts 108°
2026-05-08 19:22 52.30550 4.76369 -1 ft 1 kts 112°
2026-05-08 19:23 52.30551 4.76368 -1 ft 0 kts 111°
2026-05-08 19:25 52.30547 4.76377 -1 ft 3 kts 135°
2026-05-08 19:25 52.30518 4.76390 -1 ft 5 kts 171°
2026-05-08 19:25 52.30444 4.76425 -1 ft 10 kts 145°
2026-05-08 19:25 52.30383 4.76495 -1 ft 9 kts 146°
2026-05-08 19:26 52.30317 4.76522 -1 ft 8 kts 196°
2026-05-08 19:26 52.30263 4.76439 -1 ft 12 kts 237°
2026-05-08 19:26 52.30209 4.76295 -1 ft 13 kts 238°
2026-05-08 19:26 52.30153 4.76154 -1 ft 13 kts 237°
2026-05-08 19:27 52.30101 4.76016 -1 ft 13 kts 239°
2026-05-08 19:27 52.30031 4.75833 -1 ft 18 kts 238°
2026-05-08 19:27 52.29956 4.75639 -1 ft 18 kts 238°
2026-05-08 19:27 52.29886 4.75454 -1 ft 17 kts 238°
2026-05-08 19:28 52.29836 4.75265 -1 ft 16 kts 272°
2026-05-08 19:28 52.29894 4.75096 -1 ft 15 kts 310°
2026-05-08 19:28 52.29970 4.74955 -1 ft 14 kts 312°
2026-05-08 19:28 52.30043 4.74820 -1 ft 13 kts 311°
2026-05-08 19:29 52.30107 4.74700 -1 ft 12 kts 311°
2026-05-08 19:29 52.30190 4.74548 -1 ft 18 kts 311°
2026-05-08 19:29 52.30281 4.74378 -1 ft 16 kts 311°
2026-05-08 19:29 52.30342 4.74209 -1 ft 15 kts 277°
2026-05-08 19:30 52.30334 4.74094 -1 ft 7 kts 249°
2026-05-08 19:30 52.30309 4.74033 -1 ft 1 kts 226°
2026-05-08 19:30 52.30306 4.74027 -1 ft 0 kts 224°
2026-05-08 19:30 52.30300 4.74019 -1 ft 2 kts 224°
2026-05-08 19:31 52.30282 4.73992 -1 ft 4 kts 220°
2026-05-08 19:31 52.30246 4.73947 -1 ft 6 kts 218°
2026-05-08 19:31 52.30232 4.73928 -1 ft 0 kts 218°
2026-05-08 19:34 52.30199 4.73874 -1 ft 11 kts 238°
2026-05-08 19:34 52.30201 4.73750 -1 ft 8 kts 319°
2026-05-08 19:34 52.30238 4.73738 -1 ft 0 kts
2026-05-08 19:34 52.30239 4.73738 -1 ft 1 kts
2026-05-08 19:35 52.30417 4.73745 -1 ft 55 kts
2026-05-08 19:35 52.31034 4.73808 -1 ft 119 kts
2026-05-08 19:35 52.32107 4.73912 69 ft 165 kts
2026-05-08 19:35 52.33320 4.73998 739 ft 165 kts
2026-05-08 19:36 52.34507 4.74455 1401 ft 169 kts 27°
2026-05-08 19:36 52.35532 4.75328 1967 ft 169 kts 30°
2026-05-08 19:36 52.36593 4.76428 2314 ft 181 kts 46°
2026-05-08 19:36 52.37303 4.78365 2606 ft 198 kts 75°
2026-05-08 19:37 52.37336 4.80927 2979 ft 215 kts 101°
2026-05-08 19:37 52.36624 4.83427 3457 ft 230 kts 132°
2026-05-08 19:37 52.35187 4.85028 4086 ft 238 kts 158°
2026-05-08 19:37 52.33335 4.85621 4494 ft 255 kts 180°
2026-05-08 19:38 52.31362 4.85214 4970 ft 267 kts 190°
2026-05-08 19:38 52.29387 4.84772 5563 ft 273 kts 184°
2026-05-08 19:38 52.27406 4.84671 6232 ft 275 kts 180°
2026-05-08 19:38 52.25426 4.84687 6941 ft 277 kts 180°
2026-05-08 19:39 52.23397 4.84703 7630 ft 280 kts 180°
2026-05-08 19:39 52.21385 4.84691 8343 ft 282 kts 181°
2026-05-08 19:39 52.19420 4.84660 8992 ft 285 kts 181°
2026-05-08 19:39 52.17422 4.84621 9648 ft 288 kts 181°
2026-05-08 19:40 52.15413 4.84579 10328 ft 291 kts 181°
2026-05-08 19:40 52.13325 4.84534 10778 ft 304 kts 181°
2026-05-08 19:40 52.11157 4.84487 11163 ft 319 kts 181°
2026-05-08 19:40 52.08892 4.84439 11483 ft 334 kts 181°
2026-05-08 19:41 52.06506 4.84390 11802 ft 349 kts 181°
2026-05-08 19:41 52.04046 4.84327 12184 ft 362 kts 182°
2026-05-08 19:41 52.01452 4.83827 12845 ft 367 kts 194°
2026-05-08 19:41 51.98958 4.82363 13548 ft 370 kts 204°
2026-05-08 19:42 51.96627 4.80530 14196 ft 374 kts 207°
2026-05-08 19:42 51.94313 4.78574 14920 ft 377 kts 207°
2026-05-08 19:42 51.91987 4.76610 15586 ft 381 kts 207°
2026-05-08 19:42 51.89641 4.74672 16284 ft 384 kts 207°
2026-05-08 19:43 51.87239 4.72731 16969 ft 387 kts 206°
2026-05-08 19:43 51.84825 4.70814 17633 ft 390 kts 206°
2026-05-08 19:43 51.82405 4.68915 18274 ft 393 kts 206°
2026-05-08 19:43 51.79947 4.67000 18903 ft 397 kts 206°
2026-05-08 19:44 51.77438 4.65053 19496 ft 401 kts 206°
2026-05-08 19:44 51.74912 4.63094 20050 ft 405 kts 206°
2026-05-08 19:44 51.72372 4.61126 20576 ft 410 kts 206°
2026-05-08 19:44 51.69815 4.59147 21099 ft 414 kts 206°
2026-05-08 19:45 51.67215 4.57137 21616 ft 418 kts 206°
2026-05-08 19:45 51.64583 4.55104 22121 ft 423 kts 207°
2026-05-08 19:45 51.61949 4.53072 22640 ft 426 kts 207°
2026-05-08 19:45 51.59264 4.51003 23143 ft 429 kts 207°
2026-05-08 19:46 51.56555 4.48918 23623 ft 433 kts 207°
2026-05-08 19:46 51.53862 4.46848 24084 ft 437 kts 207°
2026-05-08 19:46 51.48317 4.42611 24857 ft 444 kts 207°
2026-05-08 19:47 51.45527 4.40493 25197 ft 448 kts 207°
2026-05-08 19:47 51.42720 4.38362 25580 ft 451 kts 207°
2026-05-08 19:47 51.39870 4.36199 25866 ft 456 kts 207°
2026-05-08 19:47 51.37004 4.34025 26234 ft 458 kts 206°
2026-05-08 19:48 51.34119 4.31839 26535 ft 462 kts 206°
2026-05-08 19:48 51.31212 4.29638 26906 ft 464 kts 206°
2026-05-08 19:48 51.28327 4.27453 27446 ft 461 kts 207°
2026-05-08 19:48 51.25457 4.25280 27855 ft 462 kts 207°
2026-05-08 19:49 51.22531 4.23065 28224 ft 463 kts 207°
2026-05-08 19:49 51.19641 4.20879 28625 ft 464 kts 207°
2026-05-08 19:49 51.16752 4.18709 28981 ft 465 kts 206°
2026-05-08 19:49 51.13746 4.16669 29102 ft 473 kts 203°
2026-05-08 19:50 51.07441 4.13081 29100 ft 492 kts 200°
2026-05-08 19:50 51.01050 4.09727 29095 ft 471 kts 200°
2026-05-08 19:51 50.94922 4.06506 29094 ft 467 kts 200°
2026-05-08 19:51 50.88648 4.03662 29085 ft 471 kts 191°
2026-05-08 19:52 50.82130 4.03117 29085 ft 473 kts 179°
2026-05-08 19:52 50.75609 4.03751 29090 ft 472 kts 176°
2026-05-08 19:53 50.69097 4.04631 29080 ft 470 kts 175°
2026-05-08 19:53 50.62547 4.05488 29085 ft 473 kts 176°
2026-05-08 19:54 50.56004 4.06272 29086 ft 473 kts 176°
2026-05-08 19:54 50.49474 4.07008 29091 ft 473 kts 176°
2026-05-08 19:55 50.42982 4.07721 29083 ft 460 kts 176°
2026-05-08 19:55 50.36656 4.08409 28885 ft 459 kts 176°
2026-05-08 19:56 50.33485 4.08751 28627 ft 456 kts 177°
2026-05-08 19:56 50.30336 4.09090 28365 ft 451 kts 176°
2026-05-08 19:56 50.27218 4.09427 28108 ft 449 kts 176°
2026-05-08 19:56 50.24112 4.09764 27715 ft 448 kts 176°
2026-05-08 19:57 50.21034 4.10097 27191 ft 446 kts 176°
2026-05-08 19:57 50.17981 4.10427 26612 ft 444 kts 176°
2026-05-08 19:57 50.14919 4.10866 26129 ft 438 kts 169°
2026-05-08 19:57 50.12101 4.12359 26095 ft 424 kts 152°
2026-05-08 19:58 50.09554 4.14672 26090 ft 424 kts 146°
2026-05-08 19:58 50.07101 4.17277 26086 ft 429 kts 143°
2026-05-08 19:58 50.04703 4.19952 26088 ft 427 kts 143°
2026-05-08 19:58 50.02328 4.22645 26088 ft 425 kts 142°
2026-05-08 19:59 49.99948 4.25360 26088 ft 426 kts 142°
2026-05-08 19:59 49.97566 4.28078 26082 ft 426 kts 142°
2026-05-08 19:59 49.95183 4.30796 26087 ft 426 kts 142°
2026-05-08 19:59 49.92805 4.33505 26086 ft 428 kts 142°
2026-05-08 20:00 49.90390 4.36248 26073 ft 427 kts 142°
2026-05-08 20:00 49.88011 4.38949 26082 ft 428 kts 142°
2026-05-08 20:00 49.85608 4.41678 26090 ft 429 kts 142°
2026-05-08 20:00 49.83231 4.44379 26077 ft 426 kts 142°
2026-05-08 20:01 49.80853 4.47080 26076 ft 427 kts 142°
2026-05-08 20:01 49.78451 4.49804 26079 ft 428 kts 142°
2026-05-08 20:01 49.75959 4.52261 26072 ft 428 kts 154°
2026-05-08 20:01 49.73136 4.53629 26067 ft 429 kts 172°
2026-05-08 20:02 49.70169 4.53656 26078 ft 428 kts 190°
2026-05-08 20:02 49.67319 4.52319 26069 ft 424 kts 208°
2026-05-08 20:02 49.64904 4.49849 25999 ft 422 kts 223°
2026-05-08 20:02 49.62855 4.46696 25681 ft 417 kts 233°
2026-05-08 20:03 49.61216 4.43082 25357 ft 407 kts 243°
2026-05-08 20:03 49.60043 4.39133 25038 ft 400 kts 253°
2026-05-08 20:03 49.59302 4.35053 24724 ft 398 kts 259°
2026-05-08 20:03 49.58723 4.30893 24408 ft 398 kts 260°
2026-05-08 20:04 49.58150 4.26752 24073 ft 396 kts 259°
2026-05-08 20:04 49.57539 4.22679 23775 ft 396 kts 258°
2026-05-08 20:04 49.56858 4.18536 23460 ft 395 kts 257°
2026-05-08 20:04 49.56141 4.14499 23149 ft 393 kts 256°
2026-05-08 20:05 49.55394 4.10525 22838 ft 389 kts 255°
2026-05-08 20:05 49.54616 4.06522 22532 ft 387 kts 255°
2026-05-08 20:05 49.53833 4.02580 22227 ft 386 kts 255°
2026-05-08 20:05 49.53040 3.98649 21928 ft 385 kts 254°
2026-05-08 20:06 49.52251 3.94776 21616 ft 383 kts 254°
2026-05-08 20:06 49.51453 3.90880 21311 ft 380 kts 254°
2026-05-08 20:06 49.50656 3.87007 21011 ft 378 kts 253°
2026-05-08 20:06 49.49869 3.83196 20706 ft 376 kts 254°
2026-05-08 20:07 49.49086 3.79407 20409 ft 374 kts 253°
2026-05-08 20:07 49.48302 3.75621 20110 ft 372 kts 253°
2026-05-08 20:07 49.47516 3.71828 19810 ft 370 kts 253°
2026-05-08 20:07 49.46734 3.68067 19515 ft 368 kts 253°
2026-05-08 20:08 49.45961 3.64355 19214 ft 366 kts 252°
2026-05-08 20:08 49.45197 3.60686 18920 ft 364 kts 252°
2026-05-08 20:08 49.44423 3.56984 18627 ft 364 kts 252°
2026-05-08 20:08 49.43657 3.53327 18329 ft 362 kts 252°
2026-05-08 20:09 49.42882 3.49637 18018 ft 359 kts 252°
2026-05-08 20:09 49.42121 3.46020 17712 ft 358 kts 252°
2026-05-08 20:09 49.41317 3.42445 17401 ft 354 kts 249°
2026-05-08 20:09 49.40414 3.38961 17099 ft 352 kts 247°
2026-05-08 20:10 49.39458 3.35505 16786 ft 350 kts 247°
2026-05-08 20:10 49.38502 3.32091 16478 ft 349 kts 246°
2026-05-08 20:10 49.37557 3.28680 16171 ft 347 kts 246°
2026-05-08 20:10 49.36629 3.25291 15872 ft 345 kts 247°
2026-05-08 20:11 49.35720 3.21938 15573 ft 344 kts 247°
2026-05-08 20:11 49.34761 3.18387 15253 ft 343 kts 247°
2026-05-08 20:11 49.33796 3.14804 14927 ft 341 kts 247°
2026-05-08 20:11 49.32843 3.11273 14612 ft 339 kts 247°
2026-05-08 20:12 49.31918 3.07850 14296 ft 337 kts 247°
2026-05-08 20:12 49.31007 3.04487 13992 ft 337 kts 247°
2026-05-08 20:12 49.30078 3.01059 13679 ft 334 kts 247°
2026-05-08 20:12 49.29160 2.97678 13364 ft 332 kts 247°
2026-05-08 20:13 49.28235 2.94281 13050 ft 331 kts 247°
2026-05-08 20:13 49.27353 2.91043 12750 ft 330 kts 247°
2026-05-08 20:13 49.26477 2.87834 12444 ft 326 kts 247°
2026-05-08 20:13 49.25612 2.84668 12127 ft 319 kts 247°
2026-05-08 20:14 49.24773 2.81605 11837 ft 312 kts 247°
2026-05-08 20:14 49.23947 2.78586 11529 ft 305 kts 247°
2026-05-08 20:14 49.23103 2.75505 11211 ft 299 kts 247°
2026-05-08 20:14 49.22286 2.72530 11034 ft 289 kts 247°
2026-05-08 20:15 49.21482 2.69609 11065 ft 288 kts 246°
2026-05-08 20:15 49.20699 2.66764 11059 ft 290 kts 246°
2026-05-08 20:15 49.19914 2.63918 11043 ft 290 kts 246°
2026-05-08 20:15 49.19128 2.61068 10999 ft 291 kts 246°
2026-05-08 20:16 49.18375 2.58221 10667 ft 293 kts 251°
2026-05-08 20:16 49.17927 2.55209 10406 ft 291 kts 264°
2026-05-08 20:16 49.17821 2.52120 10122 ft 292 kts 270°
2026-05-08 20:16 49.17819 2.49011 9825 ft 292 kts 271°
2026-05-08 20:17 49.17813 2.45958 9478 ft 289 kts 270°
2026-05-08 20:17 49.17781 2.42869 9174 ft 287 kts 270°
2026-05-08 20:17 49.17728 2.39875 8888 ft 283 kts 269°
2026-05-08 20:17 49.17664 2.36888 8631 ft 280 kts 269°
2026-05-08 20:18 49.17615 2.33968 8284 ft 276 kts 269°
2026-05-08 20:18 49.17581 2.31030 7991 ft 273 kts 269°
2026-05-08 20:18 49.17551 2.28151 7717 ft 271 kts 269°
2026-05-08 20:18 49.17521 2.25300 7429 ft 268 kts 269°
2026-05-08 20:19 49.17491 2.22483 7125 ft 266 kts 269°
2026-05-08 20:19 49.17461 2.19680 6835 ft 263 kts 269°
2026-05-08 20:19 49.17431 2.16912 6526 ft 262 kts 269°
2026-05-08 20:19 49.17374 2.14154 6224 ft 260 kts 263°
2026-05-08 20:20 49.16734 2.11625 5943 ft 254 kts 229°
2026-05-08 20:20 49.15348 2.10029 5719 ft 247 kts 205°
2026-05-08 20:20 49.13808 2.08950 5468 ft 243 kts 202°
2026-05-08 20:20 49.12261 2.07935 5217 ft 242 kts 202°
2026-05-08 20:21 49.10708 2.06921 4963 ft 242 kts 201°
2026-05-08 20:21 49.09179 2.05921 4714 ft 241 kts 201°
2026-05-08 20:21 49.07617 2.04894 4460 ft 241 kts 202°
2026-05-08 20:21 49.06086 2.03884 4210 ft 240 kts 201°
2026-05-08 20:22 49.04539 2.02877 3994 ft 238 kts 197°
2026-05-08 20:22 49.02874 2.02701 3982 ft 233 kts 160°
2026-05-08 20:22 49.01419 2.04081 3993 ft 230 kts 134°
2026-05-08 20:22 49.00387 2.06041 3969 ft 226 kts 111°
2026-05-08 20:23 49.00082 2.08365 3992 ft 225 kts 90°
2026-05-08 20:23 49.00147 2.10784 3980 ft 225 kts 85°
2026-05-08 20:23 49.00271 2.13146 3980 ft 224 kts 84°
2026-05-08 20:23 49.00409 2.15524 3982 ft 225 kts 84°
2026-05-08 20:24 49.00552 2.17996 3983 ft 225 kts 84°
2026-05-08 20:24 49.00696 2.20487 3981 ft 225 kts 84°
2026-05-08 20:24 49.00827 2.22800 3977 ft 209 kts 84°
2026-05-08 20:24 49.00949 2.24935 3964 ft 187 kts 84°
2026-05-08 20:25 49.01061 2.26915 3753 ft 186 kts 84°
2026-05-08 20:25 49.01170 2.28838 3467 ft 180 kts 84°
2026-05-08 20:25 49.01276 2.30746 3223 ft 180 kts 84°
2026-05-08 20:25 49.01381 2.32620 2972 ft 180 kts 84°
2026-05-08 20:26 49.01488 2.34546 2720 ft 178 kts 84°
2026-05-08 20:26 49.01593 2.36431 2474 ft 178 kts 84°
2026-05-08 20:26 49.01698 2.38318 2232 ft 171 kts 84°
2026-05-08 20:26 49.01793 2.40061 2012 ft 157 kts 84°
2026-05-08 20:27 49.01883 2.41666 1814 ft 144 kts 83°
2026-05-08 20:27 49.01968 2.43225 1578 ft 142 kts 83°
2026-05-08 20:27 49.02049 2.44798 1398 ft 141 kts 84°
2026-05-08 20:27 49.02132 2.46399 1180 ft 146 kts 84°
2026-05-08 20:28 49.02224 2.48068 980 ft 148 kts 82°
2026-05-08 20:28 49.02320 2.49701 782 ft 147 kts 83°
2026-05-08 20:28 49.02405 2.51365 562 ft 146 kts 82°
2026-05-08 20:28 49.02495 2.53011 384 ft 142 kts 84°
2026-05-08 20:29 49.02570 2.54296 379 ft 86 kts 86°
2026-05-08 20:29 49.02604 2.54922 375 ft 32 kts 85°
2026-05-08 20:29 49.02574 2.55256 379 ft 25 kts 109°
2026-05-08 20:29 49.02515 2.55457 379 ft 19 kts 113°
2026-05-08 20:30 49.02466 2.55583 380 ft 11 kts 142°
2026-05-08 20:30 49.02383 2.55616 379 ft 13 kts 173°
2026-05-08 20:30 49.02279 2.55631 378 ft 14 kts 175°
2026-05-08 20:30 49.02182 2.55641 376 ft 14 kts 175°
2026-05-08 20:31 49.02095 2.55679 374 ft 14 kts 132°
2026-05-08 20:31 49.02078 2.55836 374 ft 11 kts 84°
2026-05-08 20:31 49.02082 2.55898 374 ft 8 kts 84°
2026-05-08 20:31 49.02087 2.55997 374 ft 9 kts 85°
2026-05-08 20:32 49.02094 2.56105 375 ft 10 kts 83°
2026-05-08 20:32 49.02095 2.56212 376 ft 11 kts 101°
2026-05-08 20:32 49.02034 2.56361 374 ft 17 kts 119°
2026-05-08 20:32 49.02026 2.56547 373 ft 17 kts 84°
2026-05-08 20:33 49.02037 2.56728 372 ft 17 kts 85°
2026-05-08 20:33 49.02049 2.56966 368 ft 25 kts 84°
2026-05-08 20:33 49.02063 2.57230 365 ft 25 kts 85°
2026-05-08 20:33 49.02077 2.57499 365 ft 24 kts 84°
2026-05-08 20:34 49.02086 2.57754 366 ft 23 kts 95°
2026-05-08 20:34 49.02019 2.57986 363 ft 24 kts 130°
2026-05-08 20:34 49.01693 2.58142 351 ft 23 kts 173°
2026-05-08 20:35 49.01524 2.58162 344 ft 25 kts 175°
2026-05-08 20:35 49.01374 2.58182 342 ft 18 kts 175°
2026-05-08 20:35 49.01264 2.58197 342 ft 13 kts 175°
2026-05-08 20:35 49.01199 2.58205 341 ft 7 kts 174°
2026-05-08 20:36 49.01179 2.58208 342 ft 0 kts 175°
2026-05-08 20:36 49.01167 2.58209 342 ft 3 kts 176°
2026-05-08 20:36 49.01122 2.58212 342 ft 9 kts 177°
2026-05-08 20:37 49.01043 2.58221 342 ft 12 kts 174°
2026-05-08 20:37 49.00961 2.58223 342 ft 11 kts 193°
2026-05-08 20:37 49.00913 2.58147 343 ft 9 kts 253°
2026-05-08 20:37 49.00903 2.58026 345 ft 14 kts 265°
2026-05-08 20:38 49.00896 2.57885 348 ft 11 kts 264°
2026-05-08 20:38 49.00887 2.57776 350 ft 9 kts 246°
2026-05-08 20:38 49.00858 2.57741 350 ft 0 kts 197°
2026-05-08 20:39 49.00854 2.57739 350 ft 2 kts 195°
2026-05-08 20:39 49.00828 2.57729 349 ft 4 kts 194°
2026-05-08 20:40 49.00802 2.57711 349 ft 3 kts 206°
2026-05-08 20:40 49.00791 2.57686 349 ft 4 kts 263°
2026-05-08 20:40 49.00789 2.57616 350 ft 8 kts 267°
2026-05-08 20:40 49.00785 2.57522 352 ft 7 kts 264°
2026-05-08 20:41 49.00762 2.57484 353 ft 4 kts 208°
2026-05-08 20:41 49.00739 2.57466 353 ft 2 kts 207°
2026-05-08 20:41 49.00730 2.57458 353 ft 0 kts 208°
2026-05-08 20:41 49.00726 2.57456 353 ft 0 kts 208°
2026-05-08 20:42 49.00725 2.57455 353 ft 0 kts 208°